• In Schweiz
  • Länderverzeichnis
  • Für 7 Tage
  • Wassertemperatur
  • Satellitenkarten
  • Wetterkarte
  • Widgets
  • user-avatar
    Anmelden

    Stündliche Wetter Serhiivka

    Heute, 24 September, Montag

    Zeit Temperatur Niederschläge Wind Luftdruck Luftfeuchtigkeit
    00:00 +12°C° 0 mm 4 m/S 747 mmHg 54%
    01:00 +12°C° 0 mm 4 m/S 746 mmHg 53%
    02:00 +12°C° 0 mm 4 m/S 745 mmHg 56%
    03:00 +13°C° 0 mm 6 m/S 744 mmHg 57%
    04:00 +12°C° 0 mm 7 m/S 743 mmHg 59%
    05:00 +12°C° 0 mm 8 m/S 743 mmHg 60%
    06:00 +13°C° 0 mm 9 m/S 742 mmHg 63%
    07:00 +15°C° 0 mm 9 m/S 742 mmHg 66%
    08:00 +16°C° 0 mm 10 m/S 741 mmHg 73%
    09:00 +17°C° 0.5 mm 9 m/S 741 mmHg 73%
    10:00 +18°C° 0.5 mm 9 m/S 740 mmHg 74%
    11:00 +19°C° 0.5 mm 9 m/S 740 mmHg 75%
    12:00 +18°C° 1.5 mm 8 m/S 740 mmHg 77%
    13:00 +17°C° 1.5 mm 8 m/S 740 mmHg 79%
    14:00 +15°C° 1.5 mm 8 m/S 741 mmHg 81%
    15:00 +13°C° 1.8 mm 8 m/S 741 mmHg 79%
    16:00 +12°C° 1.8 mm 8 m/S 742 mmHg 77%
    17:00 +11°C° 1.8 mm 8 m/S 743 mmHg 75%
    18:00 +10°C° 0.5 mm 7 m/S 743 mmHg 75%
    19:00 +10°C° 0.5 mm 6 m/S 744 mmHg 74%
    20:00 +9°C° 0.5 mm 5 m/S 745 mmHg 74%
    21:00 +9°C° 0 mm 5 m/S 745 mmHg 74%
    22:00 +8°C° 0 mm 5 m/S 745 mmHg 74%
    23:00 +8°C° 0 mm 5 m/S 746 mmHg 74%

    Morgen, 25 September, Dienstag

    Zeit Temperatur Niederschläge Wind Luftdruck Luftfeuchtigkeit
    00:00 +7°C° 0 mm 5 m/S 746 mmHg 75%
    01:00 +7°C° 0 mm 5 m/S 746 mmHg 75%
    02:00 +6°C° 0 mm 5 m/S 746 mmHg 76%
    03:00 +6°C° 0 mm 5 m/S 746 mmHg 77%
    04:00 +6°C° 0 mm 5 m/S 746 mmHg 78%
    05:00 +5°C° 0 mm 6 m/S 746 mmHg 79%
    06:00 +5°C° 0 mm 6 m/S 747 mmHg 76%
    07:00 +6°C° 0 mm 7 m/S 747 mmHg 74%
    08:00 +7°C° 0 mm 8 m/S 747 mmHg 71%
    09:00 +7°C° 0 mm 8 m/S 748 mmHg 69%
    10:00 +7°C° 0 mm 8 m/S 748 mmHg 66%
    11:00 +9°C° 0 mm 8 m/S 749 mmHg 64%
    12:00 +9°C° 0.3 mm 8 m/S 749 mmHg 65%
    13:00 +9°C° 0.3 mm 8 m/S 750 mmHg 65%
    14:00 +9°C° 0.3 mm 8 m/S 750 mmHg 65%
    15:00 +9°C° 0.1 mm 7 m/S 750 mmHg 64%
    16:00 +9°C° 0.1 mm 6 m/S 751 mmHg 63%
    17:00 +9°C° 0.1 mm 6 m/S 751 mmHg 63%
    18:00 +8°C° 0 mm 5 m/S 752 mmHg 65%
    19:00 +7°C° 0 mm 4 m/S 753 mmHg 68%
    20:00 +6°C° 0 mm 4 m/S 753 mmHg 71%
    21:00 +6°C° 0 mm 4 m/S 754 mmHg 71%
    22:00 +6°C° 0 mm 4 m/S 754 mmHg 72%
    23:00 +6°C° 0 mm 5 m/S 754 mmHg 72%

    übermorgen, 26 September, Mittwoch

    Zeit Temperatur Niederschläge Wind Luftdruck Luftfeuchtigkeit
    00:00 +5°C° 0 mm 5 m/S 755 mmHg 74%
    01:00 +5°C° 0 mm 5 m/S 755 mmHg 75%
    02:00 +5°C° 0 mm 5 m/S 755 mmHg 77%
    03:00 +3°C° 0 mm 5 m/S 756 mmHg 78%
    04:00 +3°C° 0 mm 5 m/S 756 mmHg 79%
    05:00 +3°C° 0 mm 5 m/S 756 mmHg 80%
    06:00 +3°C° 0 mm 5 m/S 757 mmHg 75%
    07:00 +4°C° 0 mm 6 m/S 757 mmHg 70%
    08:00 +5°C° 0 mm 6 m/S 758 mmHg 64%
    09:00 +7°C° 0 mm 6 m/S 758 mmHg 56%
    10:00 +8°C° 0 mm 6 m/S 758 mmHg 49%
    11:00 +9°C° 0 mm 6 m/S 759 mmHg 41%
    12:00 +9°C° 0 mm 6 m/S 759 mmHg 40%
    13:00 +10°C° 0 mm 6 m/S 758 mmHg 39%
    14:00 +10°C° 0 mm 5 m/S 758 mmHg 39%
    15:00 +10°C° 0 mm 5 m/S 758 mmHg 41%
    16:00 +10°C° 0 mm 4 m/S 758 mmHg 43%
    17:00 +10°C° 0 mm 3 m/S 758 mmHg 45%
    18:00 +9°C° 0 mm 3 m/S 758 mmHg 49%
    19:00 +8°C° 0 mm 2 m/S 759 mmHg 53%
    20:00 +8°C° 0 mm 1 m/S 759 mmHg 57%
    21:00 +7°C° 0 mm 2 m/S 759 mmHg 59%
    22:00 +6°C° 0 mm 2 m/S 759 mmHg 61%
    23:00 +6°C° 0 mm 2 m/S 759 mmHg 63%

    27 September, Donnerstag

    Zeit Temperatur Niederschläge Wind Luftdruck Luftfeuchtigkeit
    00:00 +6°C° 0 mm 2 m/S 758 mmHg 64%
    01:00 +6°C° 0 mm 2 m/S 758 mmHg 65%
    02:00 +4°C° 0 mm 3 m/S 758 mmHg 66%
    03:00 +4°C° 0 mm 3 m/S 757 mmHg 67%
    04:00 +4°C° 0 mm 3 m/S 757 mmHg 68%
    05:00 +4°C° 0 mm 3 m/S 756 mmHg 69%
    06:00 +5°C° 0 mm 4 m/S 756 mmHg 65%
    07:00 +6°C° 0 mm 5 m/S 756 mmHg 61%
    08:00 +8°C° 0 mm 5 m/S 756 mmHg 57%
    09:00 +10°C° 0 mm 6 m/S 755 mmHg 52%
    10:00 +11°C° 0 mm 6 m/S 755 mmHg 47%
    11:00 +14°C° 0 mm 7 m/S 755 mmHg 42%
    12:00 +15°C° 0 mm 7 m/S 754 mmHg 41%
    13:00 +16°C° 0 mm 7 m/S 754 mmHg 40%
    14:00 +16°C° 0 mm 7 m/S 753 mmHg 39%
    15:00 +16°C° 0 mm 6 m/S 752 mmHg 42%
    16:00 +16°C° 0 mm 5 m/S 752 mmHg 45%
    17:00 +15°C° 0 mm 4 m/S 752 mmHg 49%
    18:00 +14°C° 0 mm 4 m/S 752 mmHg 52%
    19:00 +13°C° 0 mm 4 m/S 752 mmHg 56%
    20:00 +12°C° 0 mm 3 m/S 752 mmHg 60%
    21:00 +12°C° 0 mm 3 m/S 752 mmHg 64%
    22:00 +11°C° 0 mm 3 m/S 752 mmHg 69%
    23:00 +11°C° 0 mm 3 m/S 752 mmHg 73%

    28 September, Freitag

    Zeit Temperatur Niederschläge Wind Luftdruck Luftfeuchtigkeit
    00:00 +11°C° 0 mm 3 m/S 751 mmHg 77%
    01:00 +11°C° 0 mm 3 m/S 751 mmHg 81%
    02:00 +10°C° 0 mm 3 m/S 751 mmHg 84%
    03:00 +10°C° 0 mm 3 m/S 751 mmHg 87%
    04:00 +10°C° 0 mm 3 m/S 751 mmHg 89%
    05:00 +9°C° 0 mm 3 m/S 750 mmHg 91%
    06:00 +11°C° 0 mm 3 m/S 750 mmHg 87%
    07:00 +12°C° 0 mm 3 m/S 750 mmHg 83%
    08:00 +13°C° 0 mm 3 m/S 750 mmHg 78%
    09:00 +16°C° 0 mm 3 m/S 750 mmHg 72%
    10:00 +18°C° 0 mm 3 m/S 750 mmHg 65%
    11:00 +19°C° 0 mm 3 m/S 750 mmHg 58%
    12:00 +20°C° 0 mm 3 m/S 750 mmHg 55%
    13:00 +21°C° 0 mm 3 m/S 749 mmHg 53%
    14:00 +21°C° 0 mm 3 m/S 749 mmHg 50%
    15:00 +21°C° 0 mm 3 m/S 748 mmHg 53%
    16:00 +20°C° 0 mm 2 m/S 748 mmHg 55%
    17:00 +20°C° 0 mm 2 m/S 748 mmHg 57%
    18:00 +19°C° 0 mm 2 m/S 748 mmHg 61%
    19:00 +18°C° 0 mm 2 m/S 748 mmHg 65%
    20:00 +16°C° 0 mm 2 m/S 748 mmHg 68%
    21:00 +16°C° 0 mm 2 m/S 748 mmHg 71%
    22:00 +16°C° 0 mm 2 m/S 747 mmHg 73%
    23:00 +15°C° 0 mm 2 m/S 747 mmHg 75%

    29 September, Samstag

    Zeit Temperatur Niederschläge Wind Luftdruck Luftfeuchtigkeit
    00:00 +15°C° 0 mm 1 m/S 747 mmHg 78%
    01:00 +15°C° 0 mm 1 m/S 747 mmHg 80%
    02:00 +14°C° 0 mm 1 m/S 747 mmHg 82%
    03:00 +14°C° 0 mm 1 m/S 747 mmHg 84%
    04:00 +14°C° 0 mm 1 m/S 747 mmHg 86%
    05:00 +14°C° 0 mm 1 m/S 747 mmHg 88%
    06:00 +15°C° 0 mm 1 m/S 746 mmHg 84%
    07:00 +16°C° 0 mm 1 m/S 746 mmHg 81%
    08:00 +15°C° 0 mm 0 m/S 746 mmHg 77%
    09:00 +18°C° 0.3 mm 1 m/S 746 mmHg 74%
    10:00 +19°C° 0.3 mm 1 m/S 747 mmHg 71%
    11:00 +20°C° 0.3 mm 1 m/S 747 mmHg 69%
    12:00 +18°C° 1.2 mm 3 m/S 747 mmHg 72%
    13:00 +16°C° 1.2 mm 5 m/S 746 mmHg 75%
    14:00 +15°C° 1.2 mm 6 m/S 746 mmHg 78%
    15:00 +14°C° 0.8 mm 7 m/S 747 mmHg 80%
    16:00 +11°C° 0.8 mm 7 m/S 747 mmHg 81%
    17:00 +9°C° 0.8 mm 7 m/S 748 mmHg 83%
    18:00 +9°C° 0.6 mm 7 m/S 749 mmHg 82%
    19:00 +8°C° 0.6 mm 7 m/S 749 mmHg 82%
    20:00 +8°C° 0.6 mm 7 m/S 750 mmHg 82%
    21:00 +7°C° 0 mm 6 m/S 750 mmHg 82%
    22:00 +7°C° 0 mm 6 m/S 751 mmHg 81%
    23:00 +7°C° 0 mm 5 m/S 751 mmHg 81%
    Mehr zeigen